This demonstration page uses our WeatherBlox Daily Observations layout. Learn more.

Left ArrowRight Arrow

40.92945, -100.16068

Hourly Observations for November 23, 2020

Temp ( °F °C ) Dew Point ( °F °C ) Humidity (%) Winds ( mph kmh ) Pressure ( in mb ) Visibility ( mi km ) Precip ( " mm )
12:15 am 00:15 Clear 25 -4.1 15 -9.5 66 66 ESE 5 7 30.37 1028 10 16.0934 0 0
12:35 am 00:35 Clear 26 -3.4 16 -8.7 67 67 SSE 5 7 30.36 1028 10 16.0934 0 0
12:55 am 00:55 Clear 25 -4 16 -8.9 69 69 S 8 13 30.37 1028 10 16.0934 0 0
1:15 am 01:15 Clear 31 -0.8 17 -8.5 56 56 SSE 8 13 30.33 1027 10 16.0934 0 0
1:35 am 01:35 Clear 33 0.7 17 -8.3 51 51 SSE 8 13 30.3 1026 10 16.0934 0 0
1:55 am 01:55 Mostly Cloudy 34 1.2 17 -8.5 49 49 SE 7 11 30.28 1025 10 16.0934 0 0
2:15 am 02:15 Mostly Cloudy 33 0.8 17 -8.5 50 50 SE 6 9 30.28 1025 10 16.0934 0 0
2:35 am 02:35 Mostly Cloudy 35 1.5 16 -8.9 46 46 SE 8 13 30.26 1025 10 16.0934 0 0
2:55 am 02:55 Cloudy 35 1.6 16 -8.8 46 46 SE 8 13 30.25 1024 10 16.0934 0 0
3:15 am 03:15 Cloudy 36 2 17 -8.5 46 46 SE 6 9 30.24 1024 10 16.0934 0 0
3:35 am 03:35 Cloudy 36 2.1 18 -8 48 48 SSE 7 11 30.24 1024 10 16.0934 0 0
3:55 am 03:55 Cloudy 37 2.9 18 -7.6 46 46 SE 8 13 30.22 1023 10 16.0934 0 0
4:15 am 04:15 Cloudy 38 3.2 20 -6.9 48 48 SSE 9 15 30.21 1023 10 16.0934 0 0
4:35 am 04:35 Cloudy 38 3.2 20 -6.4 50 50 SSE 9 15 30.2 1023 10 16.0934 0 0
4:55 am 04:55 Cloudy 39 3.7 21 -6 50 50 SSE 12 19 30.17 1022 10 16.0934 0 0
5:15 am 05:15 Cloudy 40 4.2 22 -5.5 50 50 SSE 14 22 30.15 1021 10 16.0934 0 0
5:35 am 05:35 Cloudy 40 4.2 23 -5.2 51 51 SSE 16 26 30.16 1021 10 16.0934 0 0
5:55 am 05:55 Cloudy 40 4.5 23 -4.8 51 51 SSE 16 26 30.14 1021 10 16.0934 0 0
6:15 am 06:15 Cloudy 40 4.5 24 -4.5 52 52 SSE 15 24 30.13 1020 10 16.0934 0 0
6:35 am 06:35 Cloudy 40 4.6 24 -4.2 53 53 SSE 17 28 30.13 1020 10 16.0934 0 0
6:55 am 06:55 Cloudy 41 5.2 25 -4.1 51 51 SSE 23 37 30.11 1020 10 16.0934 0 0
7:15 am 07:15 Cloudy 41 5 28 -2.2 60 60 SSE 21 33 30.11 1020 10 16.0934 0 0
7:35 am 07:35 Cloudy 41 5 30 -1.1 65 65 SSE 22 35 30.1 1019 10 16.0934 0 0
7:55 am 07:55 Cloudy 41 5.2 30 -0.9 65 65 SSE 24 39 30.09 1019 10 16.0934 0 0
8:15 am 08:15 Cloudy 41 5 31 -0.7 67 67 SSE 21 33 30.09 1019 10 16.0934 0 0
8:35 am 08:35 Cloudy 41 5 31 -0.5 68 68 SSE 24 39 30.09 1019 10 16.0934 0 0
8:55 am 08:55 Cloudy 41 5.2 31 -0.5 67 67 SSE 22 35 30.08 1018 10 16.0934 0 0
9:15 am 09:15 Cloudy 42 5.5 30 -1 63 63 S 31 50 30.05 1018 10 16.0934 0 0
9:35 am 09:35 Cloudy 42 5.5 31 -0.6 65 65 SSE 32 52 30.04 1017 10 16.0934 0 0
9:55 am 09:55 Cloudy 42 5.5 31 -0.5 66 66 SSE 24 39 30.04 1017 10 16.0934 0 0
10:15 am 10:15 Cloudy 42 5.6 30 -1 63 63 SSE 24 39 30.04 1017 10 16.0934 0 0
10:35 am 10:35 Cloudy 42 5.7 31 -0.8 63 63 SSE 29 46 30.03 1017 10 16.0934 0 0
10:55 am 10:55 Cloudy 42 5.7 32 0 67 67 SSE 26 43 30.03 1017 10 16.0934 0 0
11:15 am 11:15 Cloudy 42 5.5 33 0.3 69 69 SSE 24 39 30.02 1017 10 16.0934 0 0
11:35 am 11:35 Cloudy 42 5.5 33 0.6 71 71 SSE 25 41 30.01 1016 10 16.0934 0 0
11:55 am 11:55 Cloudy 42 5.6 34 0.9 72 72 S 26 43 30 1016 10 16.0934 0 0
12:15 pm 12:15 Cloudy 42 5.6 34 1.2 74 74 SSE 28 44 29.97 1015 10 16.0934 0 0
12:35 pm 12:35 Cloudy 42 5.5 35 1.5 76 76 SSE 26 43 29.96 1015 10 16.0934 0 0
12:55 pm 12:55 Cloudy 42 5.5 36 2 78 78 SSE 24 39 29.95 1014 10 16.0934 0 0
1:15 pm 13:15 Cloudy 42 5.6 37 2.5 81 81 SSE 24 39 29.94 1014 10 16.0934 0 0
1:35 pm 13:35 Cloudy 42 5.6 37 2.7 82 82 SSE 20 31 29.93 1014 10 16.0934 0 0
1:55 pm 13:55 Cloudy 42 5.7 38 3.3 85 85 SSE 24 39 29.9 1013 10 16.0934 0 0
2:15 pm 14:15 Cloudy 42 5.6 39 3.7 88 88 SSE 23 37 29.89 1012 10 16.0934 0 0
2:35 pm 14:35 Cloudy 42 5.6 39 4 90 90 SSE 18 30 29.89 1012 7 11.26538 0 0
2:55 pm 14:55 Cloudy 42 5.6 39 4 90 90 SSE 21 33 29.89 1012 7 11.26538 0 0
3:15 pm 15:15 Cloudy 42 5.6 39 4.1 90 90 SSE 18 30 29.88 1012 7 11.26538 0 0
3:35 pm 15:35 Cloudy 42 5.6 39 4.1 90 90 SSE 18 30 29.88 1012 7 11.26538 0 0
3:55 pm 15:55 Cloudy 42 5.5 39 4.1 91 91 SSE 20 31 29.87 1012 7 11.26538 0 0
4:15 pm 16:15 Cloudy 42 5.3 39 4 91 91 SSE 17 28 29.88 1012 7 11.26538 0 0
4:35 pm 16:35 Cloudy 41 5.1 39 4 93 93 SSE 17 28 29.88 1012 7 11.26538 0 0
4:55 pm 16:55 Cloudy 41 5 39 3.8 92 92 SE 18 30 29.88 1012 7 11.26538 0 0
5:15 pm 17:15 Cloudy 41 4.8 39 3.7 93 93 SE 14 22 29.88 1012 7 11.26538 0 0
5:35 pm 17:35 Cloudy 41 4.8 38 3.6 92 92 SE 15 24 29.87 1012 7 11.26538 0 0
5:55 pm 17:55 Cloudy 41 4.8 38 3.5 91 91 SE 13 20 29.87 1012 10 16.0934 0 0
6:15 pm 18:15 Cloudy 41 4.8 38 3.5 91 91 SE 14 22 29.87 1012 10 16.0934 0 0
6:35 pm 18:35 Cloudy 41 4.8 38 3.5 91 91 SE 16 26 29.87 1012 10 16.0934 0 0
6:55 pm 18:55 Cloudy 40 4.7 38 3.5 92 92 SE 16 26 29.87 1012 10 16.0934 0 0
7:15 pm 19:15 Cloudy 41 4.8 38 3.5 91 91 SE 16 26 29.86 1011 10 16.0934 0 0
7:35 pm 19:35 Cloudy 41 4.8 38 3.5 91 91 SE 15 24 29.86 1011 10 16.0934 0 0
7:55 pm 19:55 Cloudy 40 4.7 38 3.5 92 92 SE 13 20 29.86 1011 7 11.26538 0 0
8:15 pm 20:15 Cloudy 41 4.8 38 3.6 92 92 SE 13 20 29.85 1011 7 11.26538 0 0
8:35 pm 20:35 Cloudy 41 4.8 38 3.6 92 92 SE 12 19 29.85 1011 7 11.26538 0 0
8:55 pm 20:55 Cloudy 41 5 39 3.7 91 91 SE 14 22 29.86 1011 7 11.26538 0 0
9:15 pm 21:15 Cloudy 41 5 39 3.8 92 92 SE 12 19 29.85 1011 7 11.26538 0 0
9:35 pm 21:35 Cloudy 41 5 39 4 93 93 SE 10 17 29.85 1011 7 11.26538 0 0
9:55 pm 21:55 Cloudy 41 5.1 39 4.1 93 93 SE 14 22 29.84 1010 7 11.26538 0 0
10:15 pm 22:15 Cloudy 42 5.3 40 4.3 93 93 SE 10 17 29.85 1011 7 11.26538 0 0
10:35 pm 22:35 Cloudy with Mist and Fog 42 5.3 40 4.5 95 95 SE 10 17 29.84 1010 5 8.0467 0 0
10:55 pm 22:55 Cloudy with Mist and Fog 42 5.5 40 4.7 95 95 SE 12 19 29.82 1010 4 6.43736 0 0
11:15 pm 23:15 Cloudy with Mist and Fog 42 5.5 41 4.8 95 95 SE 12 19 29.81 1010 3 4.82802 0 0
11:35 pm 23:35 Cloudy with Mist and Fog 42 5.5 41 5 97 97 SE 10 17 29.81 1010 3 4.82802 0 0
11:55 pm 23:55 Cloudy with Mist and Fog 42 5.6 41 5.1 97 97 SE 9 15 29.8 1009 3 4.82802 0 0

Powered by AerisWeather